カタログに戻る

RADUGA 6

運用中通信GEO
NORAD 11708·PAYLOAD·🇷🇺 Russia

打ち上げ Feb 20, 1980 から Baikonur Cosmodrome

Loading…

TLE

最新Source: Space-Track

元期: Sep 14, 2026, 05:26 UTC

1 11708U 80016A   26257.22697743  .00000132  00000-0  00000-0 0  9990
2 11708   5.5026 285.7805 0002901 319.7185 231.1827  1.00263393123050

AllMySatでRADUGA 6をリアルタイム追跡

Download on the App Store